Other Public Products
Issued by NWS Charleston, SC

Home | Current Version | Previous Version | Text Only | Print | Product List | Glossary On
Versions: 1 2 3 4 5 6 7 8 9 10 11 12 13 14 15 16 17 18 19 20 21 22 23 24 25 26 27 28 29 30 31 32 33 34 35 36 37 38 39 40 41 42 43 44 45 46 47 48 49 50
000
FPUS82 KCHS 290727
OPUCHS

TEST...KCHS/KSAV Gateway Observations...TEST
National Weather Service Charleston SC
300 AM EDT THU JUN 29 2017

NOTE: "fair" indicates few or no clouds below 12,000 feet with no
significant weather and/or obstructions to visibility.

SCZ050-WAZ558-NCZ071-TXZ119-213-PAZ071-DCZ001-FLZ074-172-MI076-
NYZ176-178-MAZ016-IL014-TNZ027-NJZ106-GAZ044-MD014-290800-

...Gateway Observations for Charleston International...

CITY           SKY/WX    TMP DP  RH WIND       PRES   REMARKS
Chas Airport   CLEAR     70  65  84 CALM      30.14F
Seattle        CLEAR     57  50  77 SW5       30.10R
Charlotte      PTCLDY    67  57  70 S5        30.19S
Dallas DFW     CLEAR     79  71  76 S12       29.84F
Dallas Love    CLEAR     80  71  74 S16G23    29.86F
Philladelphia  MOCLDY    68  56  65 SW8       30.16S
Wash National  CLEAR     69  59  70 S10       30.16S
Baltimore      MOCLDY    65  57  75 S3        30.16R
Miami          MOCLDY    83  75  77 E6        30.03F HX  90
Detroit        CLOUDY    72  55  55 S13       29.90F
Newark         CLOUDY    67  54  63 SW10      30.14S
Laguardia      MOCLDY    71  55  56 SW9       30.13S
J F K          MOCLDY    67  59  75 SW8       30.15S
Boston Logan   MOCLDY    65  55  70 SW10      30.09R
Ft. Lauderdale MOCLDY    83  76  79 SE9       30.03F HX  91
Chicago O`Hare MOCLDY    67  64  90 S8        29.77F
Chicago Midway CLOUDY    70  64  81 SE10      29.79F
Houston Bush   MOCLDY    76  72  87 E7        29.88S
Houston Hobby  MOCLDY    81  74  79 CALM      29.87S
Nashville      PTCLDY    72  62  71 CALM      30.06S
Atlanta        CLOUDY    73  65  75 SE6       30.15S

$$

GAZ044-118-TXZ119-213-NCZ071-DCZ001-MDZ014-506-PAZ021-071-NJZ106-
NYZ176-178-MAZ106-OHZ011-021-055-MIZ076-KYZ091-ILZ014-INZ047-
MNZ060-ONZ431-290800-

...Gateway Observations for Savannah International...

CITY           SKY/WX    TMP DP  RH WIND       PRES   REMARKS
Savannah Arpt  MOCLDY    78  70  76 E7        30.13F
Atlanta        CLOUDY    73  65  75 SE6       30.15S
Charlotte      PTCLDY    67  57  70 S5        30.19S
Dallas DFW     CLEAR     79  71  76 S12       29.84F
Houston Bush   MOCLDY    76  72  87 E7        29.88S
Wash National  CLEAR     69  59  70 S10       30.16S
Wash Dulles    MOCLDY    62  53  72 S7        30.16R
Baltimore      MOCLDY    65  57  75 S3        30.16R
Philadelphia   MOCLDY    68  56  65 SW8       30.16S
Newark         CLOUDY    67  54  63 SW10      30.14S
Laguardia      MOCLDY    71  55  56 SW9       30.13S
J F K          MOCLDY    67  59  75 SW8       30.15S
Boston         MOCLDY    65  55  70 SW10      30.09R
Pittsburg      CLOUDY    61  53  75 S6        30.06F
Akron          PTCLDY    64  52  64 S10       30.03S
Cleveland      CLOUDY    71  53  52 S12       30.00F
Cincinnati     CLOUDY    63  57  81 S8        30.02F
Columbus       CLOUDY    62  55  78 S6        30.02S
Detroit        CLOUDY    72  55  55 S13       29.90F
Chicago O`Hare MOCLDY    67  64  90 S8        29.77F
Minneapolis    CLOUDY    69  59  70 W10       29.63S
Indianapolis   CLOUDY    69  57  65 S12       29.95F
Toronto Canada LGT RAIN  61  55  82 SE5       30.00

$$




USA.gov is the U.S. government's official web portal to all federal, state and local government web resources and services.